Location: Darvault
(48.2697°N, 2.7308°E)
Time: 07:32:56
(UTC+00:00)

Cosmos 1656 Rocket - Pass Details

Date: 17 July 2025
Orbit: 795 x 842 km, 71.1° (Epoch: 15 April)

Event Time Altitude Azimuth Distance (km) Brightness Sun altitude
Rises 20:52:03 0° 220° (SW) 3,349 6.7 -9.5°
Reaches altitude 10° 20:54:32 10° 224° (SW) 2,413 6.1 -9.8°
Maximum altitude 20:59:57 55° 302° (WNW) 970 4.4 -10.4°
Drops below altitude 10° 21:05:20 10° 21° (NNE) 2,396 6.5 -11.0°
Sets 21:07:48 0° 26° (NNE) 3,325 7.1 -11.2°
